7 * 24
多渠道服务支持
COSMOS 2362 是一颗俄罗斯 GLONASS 卫星,于 1996 年发射,用于提供全球导航和定位服务。该卫星属于 GLONASS-M 系列,运行在中地球轨道,设计寿命较长,支持高精度的军事和民用应用。COSMOS 2362 在提升 GLONASS 系统的覆盖范围和可靠性方面发挥了重要作用。尽管已服役多年,它仍在卫星导航系统中占据一席之地,与其他 GLONASS 卫星协同工作,为全球用户提供定位、导航和时间同步服务。
| 数据来源 | 国际轨道数据 |
| 星历时间: | 2025-10-28T04:40:18+0800 4天前 查看轨道信息 |
| 半长轴: | 25507.921km |
| 偏心率: | 0.0006156 |
| 轨道倾角: | 64.184° |
| 近地点辐角 | 65.572° |
| 升交点赤经 | 68.373° |
| 平近点角 | 302.909° |
| 近地点: | 19114.083km |
| 远地点: | 19145.489km |
| 周期: | 675.729分钟 |
| 每日圈数: | 2.131033 |